Zurück zum Katalog

IRIDIUM 33 DEB

AktivPO
NORAD 35628·DEBRIS·🇺🇸 United States

Gestartet Sep 14, 1997 von Baikonur Cosmodrome

Loading…

Nächste Überflüge (nächste 24 Stunden)

TLE

AktuellSource: Space-Track

Epoche: Sep 13, 2026, 16:55 UTC

1 35628U 97051RA  26256.70508696  .00004675  00000-0  75314-3 0  9993
2 35628  86.3513 245.9820 0014122  99.2062 261.0752 14.71243626904855

Verfolge IRIDIUM 33 DEB in Echtzeit mit AllMySat

Download on the App Store